COSMO-SKYMED 1

Last updated on Sat Apr 13 2024 01:02:10 GMT+0100 (British Summer Time)

1 31598U 07023A 24103.58323294 .00000778 00000+0 10427-3 0 9992 2 31598 97.8866 287.6909 0001335 86.2488 273.8878 14.82168365911403
UTC large
Height (km)
Speed (km/s)
/
Latitude / Longitude
Inclination (degrees)
Orbital Period (minutes)
Azimuth
Elevation
Range (km)
Doppler Factor

Next 0 passes for location: London (51.5072 / 0.1276)

Sorry there are no passes over London.